This is the latest recevied weather packets stored in our database for station/object AC2VK-1. If no packets are shown the sender has not sent any weather packets the latest 1 day(s).
| Time | Temp. | Humidity | Pressure | Rain* | Wind** | Luminosity | Snow |
|---|---|---|---|---|---|---|---|
| 1778073554 | 17.78° C | 92% | 1014 hPa | 3.81 mm | - | - | - |
| 1778072354 | 17.78° C | 91% | 1013.6 hPa | 1.78 mm | - | - | - |
| 1778071754 | 17.78° C | 90% | 1013.5 hPa | 1.27 mm | - | - | - |
| 1778071154 | 17.78° C | 89% | 1013.3 hPa | 0.76 mm | - | - | - |
| 1778070554 | 18.33° C | 88% | 1013.3 hPa | 0.51 mm | - | - | - |
| 1778069954 | 18.33° C | 86% | 1013.2 hPa | 0.25 mm | - | - | - |
| 1778069354 | 18.89° C | 85% | 1013 hPa | 0 mm | - | - | - |
| 1778068754 | 18.89° C | 83% | 1012.8 hPa | 0 mm | - | - | - |
| 1778066954 | 20° C | 78% | 1012.2 hPa | 0 mm | - | - | - |
| 1778066354 | 20.56° C | 77% | 1011.7 hPa | 0 mm | - | - | - |
| 1778065754 | 20.56° C | 74% | 1011.7 hPa | 0 mm | - | - | - |
| 1778065154 | 21.11° C | 73% | 1011.7 hPa | 0 mm | - | - | - |
| 1778064554 | 21.67° C | 70% | 1011.9 hPa | 0 mm | - | - | - |
| 1778062154 | 21.67° C | 69% | 1010.8 hPa | 0 mm | - | - | - |
| 1778060954 | 21.67° C | 69% | 1010.9 hPa | 0 mm | - | - | - |
| 1778059754 | 21.67° C | 68% | 1010.8 hPa | 0 mm | - | - | - |
| 1778057354 | 21.67° C | 67% | 1010.6 hPa | 0 mm | - | - | - |
| 1778056154 | 21.67° C | 66% | 1010.4 hPa | 0 mm | - | - | - |
| 1778053754 | 22.22° C | 63% | 1010.4 hPa | 0 mm | - | - | - |
| 1778048955 | 22.22° C | 58% | 1011.3 hPa | 0 mm | - | - | - |
| 1778048355 | 22.22° C | 58% | 1011.6 hPa | 0 mm | - | - | - |
| 1778047755 | 22.22° C | 58% | 1012.1 hPa | 0 mm | - | - | - |
| 1778047155 | 22.22° C | 57% | 1012.2 hPa | 0 mm | - | - | - |
| 1778046555 | 22.22° C | 56% | 1012.2 hPa | 0 mm | - | - | - |
| 1778045955 | 21.67° C | 55% | 1012.1 hPa | 0 mm | - | - | - |
* Rain latest hour (hover to see other rain measurements)
** Current wind speed in m/s (hover to see current wind gust speed)